Wetbulb
57.50 55.07 55.16 54.84 53.86 53.04 52.08 50.65 49.75 49.10 46.94 44.62 43.67 43.33 43.09 43.58 45.05 45.03 44.86 44.68 44.53 44.24
56.40 55.48 55.14 54.89 54.07 52.48 51.01 48.83 49.52 49.44 45.29 44.52 42.92 44.07 44.69 44.83 44.51 44.66 44.57 44.34 44.03 42.64
57.10 57.22 55.57 53.26 51.00 49.78 49.37 49.37 49.45 46.12 44.42 43.29 44.57 44.62 44.22 44.14 43.96 43.46 43.72 42.97 42.17 41.79
55.54 54.48 52.42 51.27 49.55 49.44 49.06 46.45 46.03 45.27 44.61 44.54 44.27 43.98 43.74 43.77 43.32 42.30 42.56 41.98 41.20 40.94
50.53 50.49 50.66 49.47 49.23 49.30 46.39 47.78 44.99 44.54 44.63 43.83 43.28 43.72 43.09 42.77 42.26 41.86 41.26 41.05 40.64 39.72
49.43 48.38 48.14 47.61 47.45 46.45 45.61 46.19 44.92 44.10 42.97 43.21 43.27 42.92 42.90 42.58 42.07 41.67 41.26 40.94 40.50 39.96
47.94 47.52 46.23 46.06 44.98 42.56 41.38 42.83 42.26 42.77 43.15 43.03 42.44 42.14 42.18 42.04 41.77 41.13 40.58 40.78 40.35 39.86
45.28 42.69 41.59 40.98 41.32 40.92 42.23 42.83 42.52 42.18 42.18 42.18 41.46 40.81 41.47 41.19 41.06 40.53 40.28 40.50 39.67 39.52
41.01 39.98 40.12 39.90 38.89 41.04 41.79 41.32 41.29 41.24 40.86 40.25 39.29 36.57 36.56 37.47 40.19 39.96 39.46 38.82 39.47 39.03
38.98 39.60 39.39 39.04 40.89 40.24 39.82 41.32 40.51 40.25 39.88 39.63 39.81 35.49 35.84 35.81 38.70 38.93 38.88 38.77 38.19 37.10
38.91 38.40 38.29 40.81 40.02 40.40 40.52 39.92 39.99 39.93 39.28 38.76 38.18 34.57 34.77 34.69 37.85 38.32 38.47 38.04 37.67 36.89
39.21 38.78 40.81 40.26 39.88 39.83 39.46 39.48 38.92 38.33 38.21 37.66 37.73 34.39 33.78 34.28 37.02 36.40 36.53 36.96 36.97 36.47
39.14 40.68 39.19 38.93 38.92 39.47 38.58 37.79 37.97 37.22 37.77 36.24 36.51 35.16 34.03 34.44 36.54 35.38 34.87 35.46 35.00 33.05
39.38 38.65 38.67 37.89 37.68 37.34 37.36 36.61 36.15 34.72 35.98 36.23 35.67 35.97 34.37 33.98 35.13 35.18 34.23 33.53 33.05 32.95
MSLP
1019.78 1020.48 1020.91 1021.11 1021.45 1021.78 1022.29 1023.18 1024.10 1024.71 1025.09 1025.73 1025.97 1026.36 1026.70 1026.90 1026.68 1027.03 1027.33 1027.37 1027.44 1027.41
1019.29 1019.82 1020.21 1020.65 1021.17 1021.85 1022.54 1023.32 1024.18 1024.87 1025.67 1025.81 1025.85 1025.92 1026.08 1026.13 1026.56 1026.92 1027.02 1027.08 1027.21 1027.26
1018.55 1019.32 1020.08 1020.86 1021.36 1022.07 1022.78 1023.65 1024.51 1025.34 1025.53 1026.29 1025.77 1025.69 1025.91 1026.14 1026.45 1026.62 1026.64 1026.79 1026.96 1026.98
1018.39 1019.15 1020.10 1020.76 1021.48 1021.98 1022.84 1023.69 1024.13 1024.74 1024.85 1025.29 1025.37 1025.49 1025.77 1025.93 1026.08 1026.24 1026.39 1026.57 1026.62 1026.57
1018.54 1019.31 1020.19 1020.89 1021.35 1022.03 1022.63 1023.16 1023.70 1024.03 1024.28 1024.79 1025.11 1025.34 1025.50 1025.57 1025.71 1025.90 1025.95 1025.98 1026.14 1026.08
1018.94 1019.82 1020.19 1021.19 1021.65 1022.19 1023.01 1023.48 1023.83 1023.66 1024.16 1024.55 1024.73 1024.96 1025.11 1025.23 1025.33 1025.36 1025.38 1025.43 1025.44 1025.39
1019.73 1020.64 1021.33 1021.96 1022.49 1022.72 1023.17 1023.49 1024.09 1023.85 1024.14 1024.39 1024.49 1024.63 1024.74 1024.83 1024.86 1024.87 1024.87 1024.87 1024.89 1024.81
1020.50 1020.91 1021.71 1022.43 1023.15 1023.07 1023.37 1023.57 1023.77 1023.84 1024.20 1024.27 1024.27 1024.31 1024.62 1024.64 1024.58 1024.46 1024.35 1024.28 1024.18 1024.05
1020.93 1021.68 1022.15 1022.80 1023.08 1023.43 1023.54 1023.53 1023.65 1023.69 1023.94 1024.05 1024.06 1024.35 1024.61 1024.52 1024.18 1023.91 1023.71 1023.43 1023.31 1023.31
1021.05 1021.77 1022.32 1022.77 1023.17 1023.10 1023.44 1023.22 1023.42 1023.61 1023.71 1023.78 1023.83 1024.20 1024.14 1024.04 1023.80 1023.37 1023.04 1022.85 1022.77 1022.69
1021.25 1021.84 1022.29 1022.55 1022.82 1023.04 1022.94 1023.15 1023.16 1023.23 1023.46 1023.56 1023.51 1023.72 1023.69 1023.59 1023.27 1022.81 1022.42 1022.30 1022.16 1022.06
1021.18 1021.71 1021.93 1022.21 1022.46 1022.69 1022.79 1022.85 1022.91 1023.03 1023.09 1023.10 1023.02 1023.14 1023.17 1023.07 1022.56 1022.09 1021.72 1021.57 1021.46 1021.32
1021.23 1021.33 1021.69 1022.06 1022.37 1022.54 1022.65 1022.64 1022.67 1022.64 1022.65 1022.63 1022.47 1022.29 1022.32 1022.29 1021.90 1021.43 1020.84 1020.62 1020.58 1020.50
1021.35 1021.64 1022.01 1022.32 1022.56 1022.60 1022.59 1022.70 1022.74 1022.81 1022.57 1022.37 1022.21 1021.81 1021.72 1021.56 1021.20 1020.62 1020.09 1019.61 1019.15 1019.21
Wind_Speed
11 7 9 12 11 11 10 9 12 10 7 6 7 7 6 4 4 4 5 6 5 4
10 12 11 13 11 8 8 9 10 6 4 4 7 7 7 4 5 6 5 5 6 5
13 12 10 10 10 11 11 10 6 3 3 6 8 7 5 4 5 6 5 5 7 7
11 10 9 10 12 13 10 9 8 7 8 10 6 5 6 7 6 7 8 8 8 9
10 12 12 13 12 11 7 7 8 9 7 5 5 6 7 8 8 9 10 10 9 10
11 11 13 10 6 7 6 6 6 5 5 6 5 7 8 9 10 10 11 10 10 10
12 10 6 6 5 6 6 5 3 4 4 5 6 6 7 7 9 9 10 10 10 10
10 8 9 7 6 6 5 5 4 4 5 5 4 3 5 7 8 9 10 10 10 10
10 8 9 8 6 5 4 4 4 5 4 4 4 5 7 8 9 10 12 12 12 11
10 10 8 7 6 5 5 5 5 5 5 6 6 6 9 10 10 11 13 13 11 10
9 8 7 6 2 5 3 4 5 4 5 6 7 9 11 12 11 11 13 13 13 12
8 8 6 3 3 3 3 4 5 5 6 8 9 9 11 11 10 11 13 12 13 14
6 5 3 1 2 2 4 5 5 7 9 11 12 12 14 13 9 9 10 12 13 15
5 4 4 4 3 5 6 6 7 8 10 12 12 14 15 16 11 10 10 11 10 9
Wind_Direction
177 181 208 196 188 191 183 167 154 151 146 153 156 189 178 184 196 206 219 212 210 227
178 193 205 204 192 178 158 142 143 138 118 167 203 184 185 192 211 215 214 216 223 237
192 201 202 184 163 148 135 138 134 120 140 223 205 193 186 208 222 224 220 229 234 242
188 184 167 156 149 137 132 144 168 187 185 216 215 200 216 229 237 237 242 236 239 250
144 143 150 147 137 148 153 170 175 187 191 214 226 235 239 246 245 243 243 244 240 249
141 142 137 131 139 138 156 171 188 160 195 221 234 243 243 247 252 247 245 244 247 254
129 107 88 94 135 124 126 136 183 168 216 234 241 246 257 258 256 250 242 244 249 254
107 97 104 117 118 96 137 145 176 198 228 238 252 265 277 271 261 254 254 254 251 252
103 121 129 118 95 160 150 166 209 222 224 254 260 275 274 275 275 266 261 263 260 256
124 122 116 121 159 148 206 225 233 226 236 258 271 271 280 276 280 272 266 263 260 261
116 117 128 153 157 246 233 241 249 256 252 260 273 266 275 277 280 270 266 261 259 262
128 130 146 199 247 257 250 264 264 260 264 267 274 260 262 269 273 266 266 262 261 258
144 138 143 207 262 263 265 274 270 269 263 264 269 263 254 255 267 260 259 257 264 254
92 68 43 23 8 333 322 313 301 288 288 287 283 283 271 265 269 261 270 265 254 246